Wind_Speed
45 45 45 45 45 45 46 46 47 47 47 48 49 50 51 51 51 51 51 50 49 49 48 46 47 47 48 48 48 48 50 51 52 53 54 54 55 55
45 45 45 45 45 45 46 47 48 49 49 49 50 51 50 50 50 50 49 49 48 48 48 48 48 49 49 49 49 50 50 51 52 53 54 54 55 55
45 45 45 46 46 46 47 48 49 50 51 51 51 51 50 50 50 49 49 49 49 49 49 49 49 50 50 49 50 50 50 50 51 52 52 53 54 55
45 45 46 46 47 47 48 49 50 51 52 52 51 50 50 49 49 49 49 49 49 50 50 49 50 51 51 51 50 50 50 50 51 52 52 53 53 54
46 47 47 48 48 49 50 51 52 52 53 52 50 50 50 50 49 49 49 49 50 51 51 51 51 51 51 51 50 50 50 51 51 52 52 53 52 52
46 47 48 49 49 50 51 52 53 53 52 51 50 49 49 50 50 50 51 51 51 51 51 51 51 50 50 50 50 51 51 51 51 51 51 51 50 50
47 48 49 50 51 51 52 52 53 52 51 50 49 48 48 49 50 51 51 51 51 51 50 49 49 49 49 49 50 51 51 51 51 50 49 49 48 48
49 49 50 51 52 53 53 53 53 52 51 49 48 48 49 49 50 50 51 51 50 50 50 49 49 49 49 49 50 50 50 50 49 48 47 47 46 46
51 51 52 53 54 54 54 53 52 51 50 50 49 49 49 50 50 50 50 51 50 49 49 48 49 49 48 48 48 48 48 47 46 45 45 44 43 43
53 54 54 55 55 55 54 52 50 50 50 50 50 50 50 51 50 50 50 49 48 48 48 48 48 48 48 47 47 47 45 44 43 43 43 42 42 43
54 54 55 55 55 54 52 50 50 50 50 51 50 50 50 50 50 49 49 49 47 46 47 47 47 46 46 45 45 44 43 43 42 42 41 41 41 41
54 55 55 54 53 53 51 49 49 49 50 50 50 50 50 50 50 49 49 48 47 46 46 47 46 45 43 42 42 43 42 41 40 39 39 39 39 38
54 54 53 52 52 51 50 49 49 50 49 49 49 50 49 49 49 48 47 47 46 46 45 46 45 44 43 42 40 40 40 39 38 37 37 37 37 36
52 52 51 51 50 49 49 49 49 49 49 48 48 48 47 46 46 45 45 45 45 45 45 44 43 42 41 40 39 39 38 37 36 35 35 35 34 34
50 50 50 49 47 47 47 48 48 47 47 46 46 45 44 43 43 43 43 43 43 44 43 42 41 40 40 39 38 37 36 35 35 34 33 33 32 32
49 48 47 46 46 46 45 45 45 45 44 44 43 42 41 41 42 41 41 41 42 41 41 41 40 40 39 38 37 35 34 34 33 32 31 31 30 29
47 46 45 44 44 44 44 43 43 42 42 41 41 40 40 40 40 40 40 41 41 40 39 38 38 38 37 36 34 33 32 32 30 29 29 28 28 27
45 44 43 42 42 42 42 41 41 41 41 41 40 40 40 40 40 39 39 39 37 36 36 35 34 33 33 32 32 31 31 29 28 27 26 26 25 24
44 43 42 42 41 41 41 40 40 40 40 40 39 39 39 39 38 38 38 37 35 34 33 32 31 31 31 30 29 29 28 26 25 24 23 23 22 21
42 42 41 40 40 39 39 38 38 38 39 38 38 38 37 37 36 36 35 34 33 31 30 30 29 29 28 26 24 25 25 23 22 20 20 20 19 18
40 39 39 38 38 37 36 36 36 36 37 36 36 36 36 35 34 33 32 31 30 29 28 28 27 27 25 24 22 22 21 20 19 18 18 17 15 13
38 37 37 36 36 35 34 34 35 35 35 34 34 34 33 32 32 30 29 28 28 27 27 26 25 25 24 22 21 19 18 18 17 16 16 15 12 9
35 35 35 34 34 33 34 34 33 33 33 32 32 32 31 30 29 27 27 26 25 25 24 23 23 23 21 19 18 17 17 16 14 13 13 12 10 8
Wind_Direction
281 281 281 282 284 285 287 287 289 290 290 291 291 291 291 292 292 292 293 293 292 292 292 291 291 291 290 288 287 284 283 281 280 279 278 277 276 276
281 281 282 282 285 286 287 288 289 290 291 292 292 292 292 292 292 292 292 292 293 292 292 291 292 291 290 289 287 286 285 284 282 280 279 278 277 276
280 281 282 283 285 286 288 289 290 291 291 292 293 293 292 292 292 291 292 292 292 292 292 291 291 292 291 290 288 287 285 284 283 282 280 279 277 277
280 281 283 284 286 287 289 290 290 291 292 293 293 292 292 292 291 291 291 291 292 292 291 291 291 291 291 290 289 288 287 285 284 283 282 280 279 277
281 282 283 285 286 287 289 290 291 291 292 293 292 292 291 291 291 291 291 292 293 292 291 291 292 292 292 291 290 290 289 287 286 285 284 282 280 279
281 282 284 285 287 288 289 290 290 291 292 292 292 292 291 291 292 292 292 293 293 293 292 292 292 293 292 291 290 290 290 290 289 287 286 283 281 279
281 283 284 286 287 288 289 289 290 291 291 291 291 291 291 292 293 293 293 294 294 293 293 292 293 293 293 293 291 291 290 290 289 287 286 284 282 280
281 283 285 286 287 288 289 289 289 289 290 290 290 291 293 294 294 294 294 294 294 293 293 293 293 294 294 293 293 292 292 292 291 289 287 285 283 281
282 283 285 286 287 288 289 288 288 288 289 290 291 292 293 294 294 295 295 295 295 294 294 294 294 295 295 294 294 295 295 293 292 290 288 286 284 282
282 284 285 286 287 288 288 287 286 287 288 289 290 291 293 294 295 296 296 296 295 295 295 295 296 296 296 295 295 295 294 294 293 292 290 287 285 283
282 284 285 286 287 287 286 286 286 287 288 289 290 292 293 294 294 295 296 296 295 294 295 296 297 296 296 295 294 294 294 294 294 293 291 289 287 285
283 285 286 286 286 286 285 285 286 287 288 289 291 292 293 294 294 294 295 296 295 294 294 296 297 297 296 294 293 294 294 294 294 293 293 291 289 287
284 284 285 285 285 285 284 285 286 287 288 289 291 292 292 293 293 294 294 295 295 295 295 296 297 297 297 295 294 294 295 294 294 293 293 292 290 287
283 284 284 284 284 284 284 285 286 287 288 290 291 291 292 292 293 294 295 295 297 297 297 297 297 297 297 296 295 295 295 294 294 294 294 292 290 288
283 283 284 283 282 283 284 284 285 286 287 289 290 291 291 292 293 294 295 296 298 299 298 297 297 298 297 297 297 296 295 295 295 294 293 293 292 289
282 283 283 282 282 282 283 284 285 286 287 288 289 290 291 293 294 295 296 297 298 298 297 297 297 297 297 297 297 296 295 295 294 293 293 293 293 291
283 282 281 281 281 282 283 284 285 286 287 288 289 290 292 293 294 294 295 296 296 295 295 296 297 297 296 296 296 296 296 296 295 293 294 294 294 291
282 281 282 282 282 282 283 284 285 286 287 288 289 291 292 293 294 295 295 296 295 294 295 295 296 297 297 296 296 297 297 297 297 297 297 296 294 293
280 280 280 281 282 283 283 283 284 286 287 288 289 291 292 293 294 294 295 294 294 294 294 295 295 297 298 298 297 297 297 297 296 296 297 297 297 294
279 279 280 282 282 282 282 282 283 285 287 288 289 290 292 293 294 295 294 293 292 292 294 295 296 297 297 297 297 299 299 298 296 295 296 298 299 296
277 278 279 280 280 280 280 281 283 285 287 289 289 290 292 293 294 294 293 292 291 292 293 295 295 296 296 296 297 299 299 297 295 293 295 299 301 297
276 276 278 279 279 279 280 281 283 285 287 288 290 291 292 293 294 292 291 291 291 292 293 295 295 295 295 295 296 298 298 297 294 292 295 299 303 302
277 278 278 278 278 278 279 281 283 284 286 288 290 292 293 293 292 291 291 291 292 293 293 295 296 295 294 293 294 295 296 295 293 291 292 297 301 300
Height
5727 5724 5722 5720 5718 5715 5713 5709 5707 5704 5703 5700 5694 5689 5683 5679 5674 5670 5666 5662 5658 5653 5649 5646 5642 5638 5635 5631 5628 5625 5623 5621 5619 5618 5617 5616 5615 5614
5716 5714 5712 5710 5707 5705 5702 5699 5695 5691 5689 5687 5682 5677 5671 5667 5662 5658 5654 5650 5645 5641 5637 5633 5630 5626 5622 5618 5615 5612 5609 5606 5604 5602 5600 5599 5598 5597
5706 5704 5702 5700 5697 5694 5691 5688 5684 5679 5676 5674 5669 5664 5659 5654 5650 5646 5641 5637 5634 5629 5625 5621 5617 5613 5609 5605 5602 5598 5595 5592 5589 5587 5585 5583 5581 5580
5696 5694 5691 5689 5686 5683 5680 5676 5672 5667 5663 5660 5657 5652 5647 5642 5638 5634 5630 5625 5621 5617 5613 5608 5604 5600 5596 5592 5588 5585 5581 5578 5575 5572 5570 5568 5566 5563
5685 5683 5680 5678 5675 5672 5668 5664 5660 5656 5651 5647 5644 5640 5635 5630 5626 5622 5617 5613 5609 5605 5600 5596 5591 5587 5582 5578 5575 5571 5568 5564 5561 5558 5555 5552 5549 5547
5674 5672 5669 5666 5663 5660 5656 5652 5648 5643 5639 5635 5631 5627 5622 5618 5613 5609 5605 5601 5596 5591 5587 5582 5578 5573 5569 5565 5561 5557 5553 5550 5546 5542 5539 5536 5534 5532
5663 5660 5657 5654 5651 5647 5644 5640 5635 5631 5627 5623 5619 5615 5610 5606 5601 5596 5592 5588 5583 5578 5574 5570 5565 5561 5556 5552 5548 5543 5539 5535 5531 5527 5524 5521 5518 5516
5651 5648 5645 5642 5638 5635 5631 5627 5622 5618 5614 5611 5607 5603 5599 5594 5589 5584 5580 5575 5572 5568 5562 5558 5553 5548 5544 5539 5534 5529 5525 5521 5516 5513 5509 5506 5504 5502
5638 5635 5633 5629 5625 5622 5618 5614 5610 5606 5602 5599 5595 5591 5587 5582 5577 5573 5568 5563 5558 5553 5549 5545 5540 5536 5531 5526 5521 5516 5511 5507 5503 5499 5496 5493 5490 5488
5625 5622 5619 5616 5611 5608 5605 5601 5598 5594 5591 5587 5583 5579 5574 5569 5564 5560 5555 5550 5546 5541 5536 5533 5529 5524 5519 5514 5508 5503 5499 5495 5491 5487 5483 5480 5478 5475
5611 5608 5605 5601 5598 5594 5591 5589 5586 5582 5578 5574 5570 5566 5562 5557 5552 5547 5543 5538 5534 5530 5525 5520 5517 5512 5508 5502 5497 5492 5488 5484 5480 5476 5472 5468 5465 5462
5597 5594 5590 5587 5583 5580 5577 5575 5572 5569 5566 5562 5558 5554 5549 5545 5540 5535 5530 5526 5522 5519 5514 5509 5504 5500 5497 5493 5487 5482 5478 5474 5469 5465 5461 5457 5453 5450
5583 5580 5576 5573 5569 5566 5564 5561 5559 5556 5553 5549 5545 5541 5537 5532 5528 5523 5519 5514 5510 5507 5503 5498 5493 5488 5484 5482 5478 5472 5468 5463 5459 5456 5452 5447 5443 5439
5568 5565 5562 5559 5556 5553 5551 5548 5545 5542 5539 5536 5533 5529 5525 5520 5516 5512 5508 5503 5499 5495 5491 5486 5482 5478 5473 5470 5467 5463 5458 5454 5450 5446 5442 5438 5434 5431
5554 5551 5548 5546 5543 5540 5538 5535 5532 5529 5527 5524 5521 5517 5513 5509 5505 5501 5497 5493 5489 5484 5480 5475 5472 5468 5463 5459 5456 5453 5449 5445 5440 5437 5433 5429 5426 5422
5540 5538 5535 5533 5530 5528 5525 5523 5520 5517 5514 5512 5509 5506 5502 5499 5495 5491 5487 5483 5479 5474 5469 5465 5461 5458 5454 5450 5446 5443 5439 5435 5432 5427 5424 5421 5417 5413
5527 5525 5523 5521 5519 5516 5514 5511 5508 5506 5503 5500 5498 5495 5492 5488 5484 5481 5476 5472 5468 5465 5461 5456 5452 5448 5444 5440 5437 5433 5429 5426 5422 5418 5415 5413 5409 5405
5514 5512 5510 5508 5506 5504 5502 5499 5497 5495 5492 5489 5487 5484 5481 5477 5474 5470 5466 5462 5458 5454 5451 5447 5443 5439 5436 5432 5428 5424 5421 5417 5414 5411 5407 5404 5402 5399
5501 5500 5498 5497 5495 5492 5490 5488 5486 5483 5481 5478 5476 5473 5470 5467 5463 5459 5456 5452 5448 5445 5441 5438 5435 5431 5428 5425 5421 5416 5413 5410 5407 5404 5401 5398 5395 5393
5489 5488 5487 5485 5483 5481 5479 5477 5475 5472 5470 5468 5465 5462 5459 5456 5453 5449 5446 5442 5439 5436 5433 5429 5426 5422 5419 5417 5414 5411 5406 5403 5400 5398 5395 5392 5390 5387
5478 5476 5475 5473 5471 5470 5468 5466 5464 5462 5460 5457 5455 5452 5449 5446 5443 5440 5436 5433 5430 5428 5425 5422 5418 5415 5412 5409 5407 5404 5401 5397 5394 5392 5389 5388 5386 5384
5466 5465 5464 5462 5461 5459 5458 5456 5454 5452 5450 5447 5445 5442 5439 5437 5434 5431 5428 5425 5422 5420 5417 5414 5411 5408 5405 5403 5401 5398 5396 5393 5390 5387 5385 5384 5382 5380
5455 5454 5453 5452 5450 5449 5447 5446 5444 5442 5440 5438 5436 5433 5430 5428 5425 5422 5420 5417 5415 5412 5410 5407 5404 5402 5399 5397 5395 5393 5391 5389 5387 5385 5383 5381 5380 5378